Regional Weather Roundup
Issued by NWS Cleveland, OH

Home | Current Version | Previous Version | Graphics & Text | Print | Product List | Glossary On
Versions: 1 2 3 4 5 6 7 8 9 10 11 12 13 14 15 16 17 18 19 20 21 22 23 24 25 26 27 28 29 30 31 32 33 34 35 36 37 38 39 40 41 42 43 44 45 46 47 48 49 50
000
ASUS41 KCLE 191910
RWRCLE
OHIO REGIONAL WEATHER ROUNDUP
NATIONAL WEATHER SERVICE CLEVELAND, OH
200 PM EST MON FEB 19 2018

NOTE: "FAIR" INDICATES FEW OR NO CLOUDS BELOW 12,000 FEET WITH NO
SIGNIFICANT WEATHER AND/OR OBSTRUCTIONS TO VISIBILITY.

OHZ001>008-015>018-024>027-034-035-043-044-192000-
   NORTHWEST OHIO

CITY           SKY/WX    TMP DP  RH WIND       PRES   REMARKS
DEFIANCE       LGT RAIN  53  52  96 S15G21    29.92F FOG
FINDLAY        LGT RAIN  53  50  89 SE9       29.97F FOG
TOLEDO EXPRESS LGT RAIN  52  52 100 S8        29.93F FOG
TOLEDO EXEC    LGT RAIN  54  52  93 S16       29.95F FOG
LIMA           LGT RAIN  58  57  97 S14       29.98F FOG
$$

OHZ009>014-019>023-028>033-038-089-192000-
   NORTHEAST OHIO

CITY           SKY/WX    TMP DP  RH WIND       PRES   REMARKS
CLE-HOPKINS    LGT RAIN  53  50  89 S16G22    30.05F
CLE-LAKEFRONT  LGT RAIN  53  49  86 S16       30.01F
CUY CO. ARPT   LGT RAIN  54  52  94 S14       30.04F FOG
LORAIN-ELYRIA  LGT RAIN  49  44  83 S13       30.03F
ASHTABULA      CLOUDY    48  48 100 S12       30.06F
AKRON-CANTON   LGT RAIN  54  51  90 SW12      30.08F
WOOSTER        LGT RAIN  51  50  96 S7        30.08R FOG
MANSFIELD      CLOUDY    57  56  96 S16G23    30.05S
YOUNGSTOWN     LGT RAIN  49  48  97 SE7       30.08F
$$

OHZ042-051>053-060>062-070>072-077>081-192000-
  SOUTHWEST OHIO

CITY           SKY/WX    TMP DP  RH WIND       PRES   REMARKS
CINC-COVINGTON CLOUDY    71  58  63 SW15G25   30.04F
CINC-LUNKEN    CLOUDY    73  58  59 SW17      30.04F
HAMILTON       FAIR      72  59  63 SW12G18   30.04F
DAYTON         PTSUNNY   64  61  90 SW17G29   30.03F
WRIGHT-PAT AFB PTSUNNY   66  63  90 S14       30.03F
DAYTON GENERAL LGT RAIN  68  58  70 SW12      30.03F
WILMINGTON     CLOUDY    67  60  78 SW17      30.05S
$$

OHZ036-037-039>041-045>050-054>059-063>069-073>076-082>088-192000-
  CENTRAL AND SOUTHEAST OHIO

CITY           SKY/WX    TMP DP  RH WIND       PRES   REMARKS
COLUMBUS       CLOUDY    63  58  83 S7        30.06S
OSU AIRPORT    CLOUDY    63  59  87 S12       30.05S
BOLTON FIELD   CLOUDY    63  57  82 SW12      30.07S
RICKENBACK AFB PTSUNNY   63  58  86 S13       30.06S
NEWARK         PTSUNNY   62  56  80 SW9       30.07F
MARION         LGT RAIN  55  54  96 S12       30.04F FOG
LANCASTER      FAIR      64  56  75 S13       30.08F
ZANESVILLE     FAIR      63  55  75 S8        30.09F
NEW PHILLY     NOT AVBL
$$




USA.gov is the U.S. government's official web portal to all federal, state and local government web resources and services.